This is the latest recevied weather packets stored in our database for station/object K7FRY. If no packets are shown the sender has not sent any weather packets the latest 10 day(s).
| Time | Temp. | Humidity | Pressure | Rain* | Wind** | Luminosity | Snow |
|---|---|---|---|---|---|---|---|
| 1777051147 | 25° C | 25% | 1013.8 hPa | 0 mm | - | 675 W/m² | - |
| 1777050843 | 25.56° C | 24% | 1013.9 hPa | 0 mm | - | 704 W/m² | - |
| 1777050539 | 25° C | 25% | 1013.9 hPa | 0 mm | - | 803 W/m² | - |
| 1777050237 | 25° C | 24% | 1013.8 hPa | 0 mm | - | 612 W/m² | - |
| 1777049933 | 25° C | 25% | 1014 hPa | 0 mm | - | 817 W/m² | - |
| 1777049633 | 25° C | 25% | 1014.1 hPa | 0 mm | - | 778 W/m² | - |
| 1777049331 | 23.89° C | 26% | 1013.9 hPa | 0 mm | - | 777 W/m² | - |
| 1777049027 | 24.44° C | 26% | 1013.7 hPa | 0 mm | - | 700 W/m² | - |
| 1777048723 | 23.89° C | 26% | 1014.1 hPa | 0 mm | - | 574 W/m² | - |
| 1777048423 | 25° C | 25% | 1013.8 hPa | 0 mm | - | 805 W/m² | - |
| 1777048123 | 24.44° C | 24% | 1013.8 hPa | 0 mm | - | 796 W/m² | - |
| 1777047819 | 24.44° C | 25% | 1013.8 hPa | 0 mm | - | 791 W/m² | - |
| 1777047515 | 25° C | 24% | 1014 hPa | 0 mm | - | 728 W/m² | - |
| 1777047210 | 24.44° C | 25% | 1013.8 hPa | 0 mm | - | 631 W/m² | - |
| 1777046907 | 23.33° C | 26% | 1014 hPa | 0 mm | - | 698 W/m² | - |
| 1777046604 | 22.78° C | 27% | 1013.9 hPa | 0 mm | - | 672 W/m² | - |
| 1777046299 | 22.22° C | 27% | 1014.1 hPa | 0 mm | - | 647 W/m² | - |
| 1777045994 | 21.67° C | 28% | 1013.9 hPa | 0 mm | - | 593 W/m² | - |
| 1777045691 | 21.67° C | 28% | 1014 hPa | 0 mm | - | 589 W/m² | - |
| 1777045387 | 21.67° C | 28% | 1014.2 hPa | 0 mm | - | 544 W/m² | - |
| 1777045083 | 21.67° C | 28% | 1014.1 hPa | 0 mm | - | 498 W/m² | - |
| 1777044778 | 21.67° C | 27% | 1014.5 hPa | 0 mm | - | 530 W/m² | - |
| 1777044475 | 21.11° C | 28% | 1014.4 hPa | 0 mm | - | 449 W/m² | - |
| 1777044170 | 20.56° C | 28% | 1014.5 hPa | 0 mm | - | 62 W/m² | - |
| 1777043867 | 20.56° C | 28% | 1014.4 hPa | 0 mm | - | 321 W/m² | - |
* Rain latest hour (hover to see other rain measurements)
** Current wind speed in m/s (hover to see current wind gust speed)